Weather History for Ft Pierce, FL

Change the Weather History Date:

Sunday, May 26, 2013

  Actual Average Record
Temperature  
Mean Temperature 70 °F -  
Max Temperature 82 °F 87 °F 98 °F (1949)
Min Temperature 59 °F 67 °F 57 °F (1967)
Cooling Degree Days 6    
Growing Degree Days 20 (Base 50)    
Moisture  
Dew Point 61 °F    
Average Humidity 62    
Maximum Humidity 90    
Minimum Humidity 52    
Precipitation  
Precipitation 0.00 in - - ()
Sea Level Pressure  
Sea Level Pressure 30.17 in    
Wind  
Wind Speed 6 mph (ENE)    
Max Wind Speed 15 mph    
Max Gust Speed 17 mph    
Visibility 10 miles    
Events      
Averages and records for this station are not official NWS values.
T = Trace of Precipitation, MM = Missing Value Source: NWS Daily Summary

Daily Weather History Graph

Daily Weather History Graph

Search for Another Location

Airport:

Trip Planner

Search our weather history database for the weather conditions in past years. The results will help you decide how hot, cold, wet, or windy it might be!

Date:

Astronomy

May. 26, 2013 Rise Set
Actual Time 6:27 AM EDT 8:09 PM EDT
Civil Twilight 6:01 AM EDT 8:35 PM EDT
Nautical Twilight 5:30 AM EDT 9:06 PM EDT
Astronomical Twilight 4:58 AM EDT 9:39 PM EDT
Moon 9:57 PM EDT (5/26) 7:54 AM EDT (5/26)
Length of Visible Light 14h 33m
Length of Day
13h 41m
Waning Gibbous, 97% of the Moon is Illuminated
May 26
Waning Gibbous
May 31
Last Quarter
Jun 8
New
Jun 16
First Quarter
Jun 23
Full

Hourly Weather History & Observations

Time (EDT) Temp. Heat Index Dew Point Humidity Pressure Visibility Wind Dir Wind Speed Gust Speed Precip Events Conditions
12:53 AM 73.9 °F - 57.9 °F 57% 30.19 in 10.0 mi ENE 5.8 mph - N/A   Scattered Clouds
1:53 AM 73.0 °F - 57.0 °F 57% 30.18 in 10.0 mi ENE 4.6 mph - N/A   Partly Cloudy
2:53 AM 70.0 °F - 55.9 °F 61% 30.16 in 10.0 mi East 3.5 mph - N/A   Clear
3:53 AM 70.0 °F - 57.0 °F 63% 30.15 in 10.0 mi ENE 3.5 mph - N/A   Clear
4:53 AM 64.0 °F - 57.0 °F 78% 30.15 in 10.0 mi Calm Calm - N/A   Clear
5:53 AM 61.0 °F - 57.0 °F 87% 30.15 in 10.0 mi Calm Calm - N/A   Clear
6:53 AM 59.0 °F - 55.9 °F 90% 30.16 in 10.0 mi Calm Calm - N/A   Clear
7:53 AM 73.9 °F - 62.1 °F 66% 30.17 in 10.0 mi Calm Calm - N/A   Clear
8:53 AM 78.1 °F - 63.0 °F 60% 30.18 in 10.0 mi NNE 6.9 mph - N/A   Scattered Clouds
9:53 AM 78.1 °F - 63.0 °F 60% 30.20 in 10.0 mi ENE 6.9 mph - N/A   Partly Cloudy
10:53 AM 79.0 °F - 63.0 °F 58% 30.21 in 10.0 mi ENE 8.1 mph - N/A   Scattered Clouds
11:53 AM 81.0 °F 81.9 °F 62.1 °F 52% 30.21 in 10.0 mi ENE 9.2 mph - N/A   Partly Cloudy
12:53 PM 82.0 °F 83.4 °F 64.0 °F 54% 30.20 in 10.0 mi Variable 6.9 mph - N/A   Scattered Clouds
1:53 PM 81.0 °F 82.5 °F 64.0 °F 56% 30.20 in 10.0 mi ENE 9.2 mph 17.3 mph N/A   Scattered Clouds
2:53 PM 81.0 °F 82.2 °F 63.0 °F 54% 30.19 in 10.0 mi NE 8.1 mph - N/A   Mostly Cloudy
3:53 PM 81.0 °F 82.5 °F 64.0 °F 56% 30.17 in 10.0 mi NE 9.2 mph 17.3 mph N/A   Partly Cloudy
4:53 PM 81.0 °F 82.5 °F 64.0 °F 56% 30.17 in 10.0 mi NE 9.2 mph - N/A   Scattered Clouds
5:53 PM 80.1 °F 81.7 °F 64.0 °F 58% 30.15 in 10.0 mi ENE 9.2 mph - N/A   Scattered Clouds
6:53 PM 78.1 °F - 63.0 °F 60% 30.15 in 10.0 mi ENE 8.1 mph - N/A   Scattered Clouds
7:53 PM 77.0 °F - 63.0 °F 62% 30.15 in 10.0 mi ENE 8.1 mph - N/A   Scattered Clouds
8:53 PM 75.9 °F - 62.1 °F 62% 30.16 in 10.0 mi East 9.2 mph - N/A   Scattered Clouds
9:53 PM 75.0 °F - 60.1 °F 60% 30.17 in 10.0 mi East 11.5 mph - N/A   Partly Cloudy
10:53 PM 75.0 °F - 61.0 °F 62% 30.19 in 10.0 mi East 8.1 mph - N/A   Scattered Clouds
11:53 PM 75.9 °F - 61.0 °F 60% 30.18 in 10.0 mi East 15.0 mph - N/A   Mostly Cloudy